SHENZHOU-11 MODULE

Last updated on Wed Oct 07 2020 01:02:25 GMT+0100 (British Summer Time)

1 41868U 16061G 20280.09605367 .05817383 92395-5 21431-3 0 9991 2 41868 42.7730 152.8530 0009505 273.5415 86.4563 16.43610672223872

Satellite not in orbit